Regional Weather Roundup
Issued by NWS Newport/Morehead, NC

Current Version | Previous Version | Text Only | Print | Product List | Glossary Off
Versions: 1 2 3 4 5 6 7 8 9 10 11 12 13 14 15 16 17 18 19 20 21 22 23 24 25 26 27 28 29 30 31 32 33 34 35 36 37 38 39 40 41 42 43 44 45 46 47 48 49 50
000 ASUS42 KMHX 242013 RWRMHX WEATHER ROUNDUP FOR EASTERN NORTH CAROLINA NATIONAL WEATHER SERVICE NEWPORT/MOREHEAD CITY NC 400 PM EDT SUN JUL 24 2016 NOTE: "FAIR" INDICATES FEW OR NO CLOUDS BELOW 12,000 FEET WITH NO SIGNIFICANT WEATHER AND/OR OBSTRUCTIONS TO VISIBILITY NCZ015>017-031-032-045>047-102-103-242100- NORTH COAST CITY SKY/WX TMP DP RH WIND PRES REMARKS EDENTON SUNNY 96 71 45 SW7 29.99F HX 103 ELIZABETH CITY SUNNY 94 73 50 S10 29.98F HX 103 KITTY HAWK CLEAR 99 76 47 S5 29.98F HX 113 MANTEO N/A 89 81 79 S15 29.99F HX 107 $$ NCZ045>047-081-094-103-104-242100- CENTRAL COAST CITY SKY/WX TMP DP RH WIND PRES REMARKS FRISCO SUNNY 88 79 74 SW10 30.02F HX 103 $$ NCZ095-097-098-100-101-242100- SOUTHERN COAST CITY SKY/WX TMP DP RH WIND PRES REMARKS BEAUFORT SUNNY 88 79 74 SW13 30.02F HX 103 CEDAR ISLAND NOT AVBL JACKSONVILLE SUNNY 91 76 61 S13 30.00F HX 103 PINEY ISLAND NOT AVBL WILMINGTON MOSUNNY 91 75 59 S10 30.01F HX 101 $$ NCZ011>013-027>030-043-044-078>080-089-090>093-098-242100- COASTAL PLAIN CITY SKY/WX TMP DP RH WIND PRES REMARKS AHOSKIE SUNNY 92 77 61 CALM 29.99S HX 105 CLINTON SUNNY 95 76 52 SW6 30.00F HX 107 ELIZABETHTOWN PTSUNNY 94 73 50 SW5 30.00F HX 103 GOLDSBORO SUNNY 96 72 45 SW10 29.98F HX 104 GREENVILLE SUNNY 95 75 52 SW5 30.01F HX 107 HAVELOCK MOSUNNY 91 75 59 S12 30.02S HX 101 KENANSVILLE NOT AVBL KINSTON MOSUNNY 97 73 46 SW7 30.00F HX 107 NEW BERN PTSUNNY 92 77 61 S9 30.01F HX 105 RICHLANDS MOSUNNY 95 78 58 S13 30.00F HX 111 ROCKY MOUNT SUNNY 94 75 54 SW8 30.00F HX 105 WASHINGTON SUNNY 93 75 55 SW6 29.99F HX 104 WHITEVILLE MOSUNNY 93 75 55 S10 30.00S HX 104 $$ AMZ130-135-150-152-154-156-158-170-250-252-270-ANZ085-086-088-633-658-670-242100- MARINE OBSERVATIONS STATION/POSITION TIME TEMP WIND PRES WAVE SWELL AIR SEA DIR/SP/G HT/PER HT/PER (UTC) (F) (DEG/KT/KT) (MB) (FT/S) (FT/S) CHESAPEAKE LIGHT NOT AVBL 64 E VA BEACH 1950 82 81 210/ 8/ 8 1015.7 2/ 4 2/ 4 DUCK 1900 90 60 230/ 8/ 10 1015.1 2 E DUCK 1911 75 N/A 1/ 9 OREGON INLET 1906 85 85 190/ 16/ 18 1016.0 13E OREGON INLT 1900 83 N/A 2/ 9 2/ 9 HATTERAS CG 1900 86 83 210/ 10/ 13 1016.5 DIAMOND BUOY 1950 85 86 230/ 14/ 16 1016.7 2/ 8 2/ 8 CAPE LOOKOUT 1900 87 220/ 10/ 13 1016.8 BEAUFORT LAB 1900 87 83 210/ 9/ 14 1016.3 30 SE NEW RVR IN 1908 85 86 230/ 10/ 14 1017.3 30 SE NEW RVR IN 1925 85 N/A 2/ 9 27 SE WRIGHTSVLE 1908 86 85 200/ 10/ 12 1017.6 5 SE WRIGHTSVLE 1908 85 85 200/ 12/ 16 1017.7 225 S CAPE HAT 1950 84 87 130/ 4/ 4 1018.3 2/ 9 2/ 9 41 SE CHARLESTON 1950 84 86 180/ 4/ 6 1016.9 2/ 9 2/ 9 $$

USA.gov is the U.S. government's official web portal to all federal, state and local government web resources and services.